Regional Weather Roundup
Issued by NWS Northern Indiana

Home | Current Version | Previous Version | Graphics & Text | Print | Product List | Glossary On
Versions: 1 2 3 4 5 6 7 8 9 10 11 12 13 14 15 16 17 18 19 20 21 22 23 24 25 26 27 28 29 30 31 32 33 34 35 36 37 38 39 40 41 42 43 44 45 46 47 48 49 50
000
ASUS43 KIWX 221310
RWRIWX

KIWX WEATHER ROUNDUP
NATIONAL WEATHER SERVICE NORTHERN INDIANA
800 AM EST SAT NOV 22 2014

NOTE: "FAIR" INDICATES FEW OR NO CLOUDS BELOW 12,000 FEET WITH NO
SIGNIFICANT WEATHER AND/OR OBSTRUCTIONS TO VISIBILITY.

* THESE STATIONS ARE NOT UNDER NWS QUALITY CONTROL. THEY ALSO MAY NOT
  REPORT WEATHER SUCH AS PRECIPITATION OR FOG.

INZ001>027-221400-
NORTHERN INDIANA

CITY           SKY/WX    TMP DP  RH WIND       PRES   REMARKS
GARY*          CLOUDY    37  34  87 S12       30.07F FOG
VALPARAISO     CLOUDY    34  31  88 S8        30.09F WCI  27
MICHIGAN CITY* CLOUDY    36  30  80 S10G17    30.08S
LAPORTE*       CLOUDY    35  35 100 S7        30.09F FOG     WCI  29
KNOX*          CLOUDY    33  32  96 S6        30.10F WCI  28
SOUTH BEND     CLOUDY    35  32  88 S13       30.09F WCI  26
ELKHART*       CLOUDY    34  32  93 W7        30.10  FOG     WCI  28
GOSHEN         CLOUDY    35  33  92 S6        30.11S WCI  30
MONTICELLO*    LGT RAIN  38  35  87 S10       30.10F
LOGANSPORT*    LGT RAIN  36  32  87 S13       30.13S
ROCHESTER*     CLOUDY    39  36  87 S10       30.11F
WARSAW*        CLOUDY    34  32  93 S5        30.11F WCI  30
ANGOLA*        CLOUDY    34  30  86 SW6       30.10F WCI  29
FORT WAYNE     CLOUDY    37  33  85 SW10      30.14F
HUNTINGTON*    CLOUDY    38  34  84 SW10      30.13F
PERU/GRISSOM   CLOUDY    38  38  99 SW13      30.13S
MARION*        CLOUDY    36  32  84 S15G21    30.16S

$$
INZ028>050-221400-
CENTRAL INDIANA

CITY           SKY/WX    TMP DP  RH WIND       PRES   REMARKS
LAFAYETTE      CLOUDY    40  33  76 S7        30.13F
KOKOMO*        CLOUDY    37  32  81 S16       30.14F
MUNCIE*        CLOUDY    41  34  76 SW10G18   30.17F
INDIANAPOLIS   CLOUDY    38  33  82 SE7       30.17F

$$
MIZ043>046-050>051-056>058-064>065-071>073-077>080-221400-
SOUTHWEST LOWER MICHIGAN

CITY           SKY/WX    TMP DP  RH WIND       PRES   REMARKS
BATTLE CREEK   LGT RAIN  35  31  85 SW15      30.07F FOG     WCI  25
BENTON HARBOR  CLOUDY    35  34  96 S8        30.07S FOG     WCI  29
COLDWATER*     LGT RAIN  35  34  96 SW8       30.10F WCI  29
HILLSDALE*     MIX PCPN  33  33  99 S5        30.10F WCI  29
HOLLAND        LGT RAIN  36  34  92 S9        30.04F FOG
GRAND RAPIDS   LGT RAIN  34  31  88 SW14      30.04F FOG     WCI  25
KALAMAZOO      LGT RAIN  35  33  92 SW12      30.08F FOG     WCI  27
STURGIS*       MIX PCPN  34  32  93 S7        30.10S WCI  28
THREE RIVERS*  LGT SNOW  35  33  94 S8        30.10S WCI  28

$$
OHZ001>008-015>018-024>025-221400-
NORTHWEST OHIO

CITY           SKY/WX    TMP DP  RH WIND       PRES   REMARKS
WAUSEON*       CLOUDY    32  32 100 S10       30.14F FOG     WCI  24
DEFIANCE       CLOUDY    34  31  88 S6        30.15F FOG     WCI  29
FINDLAY        LGT RAIN  36  32  85 S15       30.17F
TOLEDO EXPRESS CLOUDY    32  31  96 S7        30.15F WCI  26
TOLEDO METCALF RAIN      33  30  88 S9        30.16F FOG     WCI  25
LIMA           CLOUDY    38  33  82 S15G23    30.17F

$$
AND FOR LAKE MICHIGAN COASTAL AND OPEN LAKE BUOY OBSERVATIONS

STATION/POSITION TEMP    WIND        PRES    VSBY  WAVE
                 AIR SEA DIR/SP/G                  HT/PER
                 (F)     (DEG/KT/KT) (MB)    (MI)  (FT/S)
CALUMET HARBOR    36     180/  8/ 15 1016.7R
MICHIGAN CITY     36     180/ 14/ 18   N/A
SAINT JOSEPH      37     180/ 15/ 22 1018.3F
SOUTH LAKE BUOY   40 43  210/ 21/ 25 1016.9F         6/ 6

$$
&&


USA.gov is the U.S. government's official web portal to all federal, state and local government web resources and services.